TimeEST,TemperatureF,Dew PointF,Humidity,Sea Level PressureIn,VisibilityMPH,Wind Direction,Wind SpeedMPH,Gust SpeedMPH,PrecipitationIn,Events,Conditions,WindDirDegrees,DateUTC
12:56 AM,28.9,14.0,54,29.75,10.0,WNW,16.1,21.9,N/A,,Clear,290,2011-12-29 05:56:00
1:56 AM,28.0,14.0,56,29.77,10.0,WNW,15.0,20.7,N/A,,Clear,290,2011-12-29 06:56:00
2:56 AM,27.0,12.9,56,29.81,10.0,WNW,10.4,-,N/A,,Clear,300,2011-12-29 07:56:00
3:56 AM,26.1,9.0,49,29.84,10.0,WNW,10.4,18.4,N/A,,Clear,300,2011-12-29 08:56:00
4:56 AM,25.0,8.1,49,29.86,10.0,WNW,16.1,19.6,N/A,,Clear,300,2011-12-29 09:56:00
5:56 AM,24.1,7.0,48,29.89,10.0,WNW,11.5,18.4,N/A,,Clear,290,2011-12-29 10:56:00
6:56 AM,24.8,8.6,50,29.93,10.0,WNW,10.4,-,N/A,,Clear,290,2011-12-29 11:56:00
7:56 AM,24.1,8.1,51,29.97,10.0,West,10.4,-,N/A,,Clear,280,2011-12-29 12:56:00
8:56 AM,24.8,8.6,50,29.98,10.0,WNW,10.4,-,N/A,,Clear,290,2011-12-29 13:56:00
9:56 AM,27.0,5.0,39,30.00,10.0,West,15.0,20.7,N/A,,Clear,280,2011-12-29 14:56:00
10:56 AM,28.4,5.0,37,29.98,10.0,WNW,12.7,-,N/A,,Clear,300,2011-12-29 15:56:00
11:56 AM,30.9,7.0,37,29.95,10.0,WSW,10.4,-,N/A,,Clear,240,2011-12-29 16:56:00
12:56 PM,32.0,8.1,37,29.95,10.0,WSW,9.2,-,N/A,,Clear,250,2011-12-29 17:56:00
1:56 PM,32.0,12.2,44,29.95,10.0,SW,11.5,-,N/A,,Clear,220,2011-12-29 18:56:00
2:56 PM,30.9,12.0,46,29.98,10.0,West,13.8,-,N/A,,Clear,260,2011-12-29 19:56:00
3:56 PM,30.9,15.1,52,29.99,10.0,West,10.4,-,N/A,,Clear,260,2011-12-29 20:56:00
4:56 PM,30.0,14.0,51,29.99,10.0,WNW,6.9,-,N/A,,Clear,290,2011-12-29 21:56:00
5:56 PM,30.9,12.9,47,30.00,10.0,WNW,8.1,-,N/A,,Clear,290,2011-12-29 22:56:00
6:56 PM,30.9,10.0,42,30.01,10.0,West,5.8,-,N/A,,Clear,270,2011-12-29 23:56:00
7:56 PM,30.9,9.0,40,30.02,10.0,WNW,6.9,-,N/A,,Overcast,300,2011-12-30 00:56:00
8:56 PM,32.0,10.4,41,30.03,10.0,NW,3.5,-,N/A,,Overcast,310,2011-12-30 01:56:00
9:56 PM,30.9,12.0,46,30.05,10.0,WNW,3.5,-,N/A,,Overcast,290,2011-12-30 02:56:00
10:56 PM,30.9,12.9,47,30.05,10.0,NNW,3.5,-,N/A,,Overcast,340,2011-12-30 03:56:00
11:56 PM,28.9,14.0,54,30.04,10.0,Calm,Calm,-,N/A,,Clear,0,2011-12-30 04:56:00